This is the latest recevied weather packets stored in our database for station/object WB5TZJ. If no packets are shown the sender has not sent any weather packets the latest 10 day(s).
| Time | Temp. | Humidity | Pressure | Rain* | Wind** | Luminosity | Snow |
|---|---|---|---|---|---|---|---|
| 1777800639 | 22.78° C | 46% | 1020.9 hPa | 0 mm | - | - | - |
| 1777800039 | 22.78° C | 45% | 1020.6 hPa | 0 mm | - | - | - |
| 1777799439 | 22.78° C | 46% | 1020.6 hPa | 0 mm | - | - | - |
| 1777798839 | 22.78° C | 45% | 1020.9 hPa | 0 mm | - | - | - |
| 1777798239 | 22.78° C | 44% | 1020.9 hPa | 0 mm | - | - | - |
| 1777797639 | 22.78° C | 46% | 1020.6 hPa | 0 mm | - | - | - |
| 1777797039 | 22.78° C | 43% | 1020.6 hPa | 0 mm | - | - | - |
| 1777796439 | 22.78° C | 47% | 1020.3 hPa | 0 mm | - | - | - |
| 1777795839 | 22.78° C | 46% | 1020.3 hPa | 0 mm | - | - | - |
| 1777795239 | 22.78° C | 46% | 1019.9 hPa | 0 mm | - | - | - |
| 1777794639 | 22.78° C | 45% | 1020.3 hPa | 0 mm | - | - | - |
| 1777794039 | 22.78° C | 46% | 1020.6 hPa | 0 mm | - | - | - |
| 1777793440 | 22.78° C | 45% | 1020.9 hPa | 0 mm | - | - | - |
| 1777792840 | 22.78° C | 46% | 1020.9 hPa | 0 mm | - | - | - |
| 1777792240 | 22.78° C | 46% | 1020.6 hPa | 0 mm | - | - | - |
| 1777791640 | 22.78° C | 45% | 1020.3 hPa | 0 mm | - | - | - |
| 1777791040 | 22.78° C | 46% | 1020.3 hPa | 0 mm | - | - | - |
| 1777790440 | 22.78° C | 43% | 1020.6 hPa | 0 mm | - | - | - |
| 1777789840 | 22.78° C | 47% | 1020.3 hPa | 0 mm | - | - | - |
| 1777789240 | 22.78° C | 45% | 1020.6 hPa | 0 mm | - | - | - |
| 1777788640 | 22.78° C | 45% | 1020.9 hPa | 0 mm | - | - | - |
| 1777788040 | 22.78° C | 47% | 1020.6 hPa | 0 mm | - | - | - |
| 1777787440 | 22.78° C | 47% | 1020.9 hPa | 0 mm | - | - | - |
| 1777786840 | 22.78° C | 45% | 1020.9 hPa | 0 mm | - | - | - |
| 1777786240 | 22.78° C | 46% | 1020.6 hPa | 0 mm | - | - | - |
* Rain latest hour (hover to see other rain measurements)
** Current wind speed in m/s (hover to see current wind gust speed)